Regional Weather Roundup
Issued by NWS

Home | Current Version | Previous Version | Graphics & Text | Print | Product List | Glossary On
Versions: 1 2 3 4 5 6 7 8 9 10 11 12 13 14 15 16 17 18 19 20 21 22 23 24 25 26 27 28 29 30 31 32 33 34 35 36 37 38 39 40 41 42 43 44 45 46 47 48 49 50
000
ASUS43 KMKX 170200
RWRWI

WISCONSIN REGIONAL WEATHER ROUNDUP
NATIONAL WEATHER SERVICE MILWAUKEE/SULLIVAN WI
900 PM CDT WED AUG 16 2017

NOTE: "FAIR" INDICATES FEW OR NO CLOUDS BELOW 12,000 FEET WITH NO
SIGNIFICANT WEATHER AND/OR OBSTRUCTIONS TO VISIBILITY.

WIZ001-002-006>008-014>016-023>028-170300-
NORTHWEST WISCONSIN

CITY           SKY/WX    TMP DP  RH WIND       PRES   REMARKS
SUPERIOR ARPT    N/A     62  61  96 NE10G22   29.83F
ASHLAND        CLOUDY    65  61  87 NE6       29.85S
HAYWARD        CLOUDY    71  62  73 E9        29.82F
SIREN          CLOUDY    72  64  77 E5        29.77F
CUMBERLAND     CLOUDY    70  63  78 E10       29.77F
RICE LAKE      CLOUDY    71  64  77 E10       29.78F
CHETEK         CLOUDY    73  65  78 E12G18    29.77F
LADYSMITH      CLOUDY    71  63  74 E12       29.84S
EAU CLAIRE     LGT RAIN  71  66  84 E16G23    29.74S
MENOMONIE      RAIN      69  68  97 E9        29.75R
NEW RICHMOND   RAIN      70  66  88 E14G20    29.71F
OSCEOLA        LGT RAIN  71  66  83 E10       29.73F
$$

WIZ003>005-009-010-017-018-170300-
NORTH CENTRAL WISCONSIN

CITY           SKY/WX    TMP DP  RH WIND       PRES   REMARKS
MANITOWISH WTR CLOUDY    67  61  80 SE6       29.90S
ARBOR VITAE    CLOUDY    69  60  71 SE7       29.90S
WOODRUFF       CLOUDY    69  60  71 SE7       29.90S
RHINELANDER    CLOUDY    66  60  81 E8        29.92S
EAGLE RIVER    CLOUDY    66  55  68 SE6       29.92S
LAND O LAKES   PTCLDY    65  56  74 SE6       29.93F
PHILLIPS       CLOUDY    68  62  81 E9G16     29.85F
TOMAHAWK         N/A     67  58  72 E7        29.89F
MEDFORD        CLOUDY    68  62  81 E9G18     29.85F
MERRILL        NOT AVBL
$$

WIZ029-030-035-036-043>047-170300-
CENTRAL WISCONSIN

CITY           SKY/WX    TMP DP  RH WIND       PRES   REMARKS
WAUSAU         CLOUDY    68  62  81 E12       29.86S
MOSINEE        MOCLDY    68  64  88 E13       29.88S
MARSHFIELD     RAIN      70  63  78 E15G25    29.83S
STEVENS POINT  CLOUDY    68  64  85 E12G20    29.87F
WAUPACA        DRIZZLE   72  65  77 E8        29.89R
WAUTOMA        CLOUDY    69  66  90 E7        29.86F
WISC RAPIDS    LGT RAIN  70  66  87 SE10      29.85S
CAMP DOUGLAS   LGT RAIN  70  70 100 E17       29.79F
$$

WIZ011>013-019>022-031-037>040-048>050-170300-
NORTHEAST WISCONSIN

CITY           SKY/WX    TMP DP  RH WIND       PRES   REMARKS
ANTIGO         PTCLDY    65  61  86 E10       29.93S
SHAWANO        CLOUDY    69  63  81 E8        29.90S
OCONTO         PTCLDY    67  62  83 E5        29.92R
STURGEON BAY   CLOUDY    66  64  93 E5        29.93S
GREEN BAY      CLOUDY    67  64  90 E9        29.90S
MANITOWOC      NOT AVBL
APPLETON       LGT RAIN  70  59  68 E8        29.88F
CLINTONVILLE   CLOUDY    68  61  77 E5        29.89F
OSHKOSH        CLOUDY    69  63  81 E7        29.87F
$$

WIZ032>034-041-042-053>061-170300-
SOUTHWEST WISCONSIN

CITY           SKY/WX    TMP DP  RH WIND       PRES   REMARKS
LA CROSSE      LGT RAIN  75  72  90 E9        29.72S
SPARTA         LGT RAIN  70  69  96 E10       29.77F
VIROQUA        CLOUDY    72  72 100 SE13      29.78S
BOSCOBEL       CLOUDY    76  72  87 VRB6      29.77R
PRAIRIE DU CHI CLOUDY    73  71  93 E7        29.75R
PLATTEVILLE    PTCLDY    74  74 100 E8        29.80S
$$

WIZ056-057-062-063-064-067-068-170300-
SOUTH CENTRAL WISCONSIN

CITY           SKY/WX    TMP DP  RH WIND       PRES   REMARKS
REEDSBURG      CLOUDY    71  71 100 E8        29.81R
BARABOO/DELLS  LGT RAIN  71  68  92 E14G22    29.82S
LONE ROCK      CLOUDY    73  72  96 SE5       29.80R
MINERAL POINT  CLOUDY    73  73 100 SE8       29.81R
MADISON        LGT RAIN  71  70  96 SE15      29.83S FOG
MIDDLETON      CLOUDY    73  73 100 SE14      29.83F
WATERTOWN      LGT RAIN  69  69 100 E7        29.85F
MONROE         LGT RAIN  72  70  94 S7G24     29.83R
JANESVILLE     RAIN      73  73 100 SE8       29.83F
$$

WIZ051-052-058>065-066-070>072-170300-
SOUTHEAST WISCONSIN

CITY           SKY/WX    TMP DP  RH WIND       PRES   REMARKS
MILWAUKEE      LGT RAIN  73  71  93 E7        29.88S
WAUKESHA       LGT RAIN  68  66  94 E9        29.89F
MILWAUKEE/TIMM LGT RAIN  70  66  88 E6        29.89F
RACINE         LGT RAIN  74  72  93 SE6       29.90S FOG
KENOSHA        CLOUDY    73  71  93 E8        29.88S
FOND DU LAC    MOCLDY    68  61  78 SE6       29.88S
SHEBOYGAN      LGT RAIN  68  67  96 NE5       29.89F
WEST BEND      LGT RAIN  66  64  94 CALM      29.89F
JUNEAU         RAIN      67  65  94 E8        29.88F
$$

LSZ147-162-170300-
LAKE SUPERIOR

STATION/POSITION TIME  TEMP    WIND        PRES    WAVE
                       AIR SEA DIR/SP/G            HT/PER
                 (UTC) (F)     (DEG/KT/KT) (MB)    (FT/S)
W MID LAKE BUOY  0050   63 61   70/ 14/ 16 1012.0F   2/ 4
DEVILS ISLAND    0100   64      60/ 19/ 22 1011.4F
SAXON HARBOR     0030   67      60/  5/  7 1010.5F
$$

LMZ867-665-643>646-170300-
LAKE MICHIGAN

STATION/POSITION TIME  TEMP    WIND        PRES    WAVE
                       AIR SEA DIR/SP/G            HT/PER
                 (UTC) (F)     (DEG/KT/KT) (MB)    (FT/S)
S GREEN BAY BUOY 0130   68 72  110/ 10/ 12 1013.0R
N MID LAKE BUOY  0050   69 68   90/  6/  8 1014.0F   1
NORTHPORT PIER   0040   68     100/  4/  7 1013.5S
KEWAUNEE LAKESHO 0130   67      60/  2/  5 1012.2F
SHEBOYGAN LAKESH 0100   70      50/  8/  8 1012.1F
PORT WASHINGTON  0030   71      50/  7/ 10 1012.9F
ATWATER BUOY     0009   71 72   CALM  /  4 1012.9R
MILWAUKEE LAKESH 0130   71      70/  2/  3   N/A
S MID LAKE BUOY  0050   75 73   70/ 10/ 10 1011.7F   1
KENOSHA   LAKESH 0100   73     130/  6/  8 1011.5
$$

TC  - TEMPERATURE IN CELSIUS
VSB - VISIBILITY IN STATUTE MILES
WCI - WIND CHILL INDEX
HX  - HEAT INDEX





USA.gov is the U.S. government's official web portal to all federal, state and local government web resources and services.